Regional Weather Roundup
Issued by NWS New Orleans/Baton Rouge, LA

Home | Current Version | Previous Version | Text Only | Print | Product List | Glossary On
Versions: 1 2 3 4 5 6 7 8 9 10 11 12 13 14 15 16 17 18 19 20 21 22 23 24 25 26 27 28 29 30 31 32 33 34 35 36 37 38 39 40 41 42 43 44 45 46 47 48 49 50
566
ASUS44 KLIX 211712
RWRLIX
NEW ORLEANS REGIONAL WEATHER ROUNDUP
NATIONAL WEATHER SERVICE NEW ORLEANS LA
1100 AM CST THU NOV 21 2019

NOTE: "FAIR" INDICATES FEW OR NO CLOUDS BELOW 12,000 FEET WITH NO
      SIGNIFICANT WEATHER AND/OR OBSTRUCTIONS TO VISIBILITY.
      SKY/WX - SKY CONDITION AND SIGNIFICANT WEATHER.
      TMP - AIR TEMPERATURE.     DP    - DEWPOINT TEMPERATURE.
      RH  - RELATIVE HUMIDITY.   PRES  - PRESSURE.
      HI  - HEAT INDEX.          WCI   - WIND CHILL INDEX.

*  THESE STATIONS ARE NOT NWS OR FAA STATIONS AND ARE NOT UNDER
   NWS QUALITY CONTROL.

LAZ038-040-048-061>063-065>067-069-211800-
SOUTHEAST LOUISIANA

CITY           SKY/WX    TMP DP  RH WIND       PRES   REMARKS
N.O. INTL ARPT PTSUNNY   76  59  55 SE12      30.15
N.O. LAKEFRONT FAIR      70  58  65 E9        30.17F
N.O. DOWNTOWN* FAIR      74  58  57 VRB5      30.17F
RESERVE*       FAIR      75  57  53 E6        30.16F
SLIDELL        FAIR      71  56  58 E6        30.17F
BATON ROUGE    FAIR      72  58  61 E9        30.14F
BOOTHVILLE*    FAIR      74  59  58 E7        30.18F
BELLE CHASSE*  PTSUNNY   74  60  61 SE14      30.16F
BOGALUSA*      FAIR      73  55  54 S8        30.18F
GALLIANO*      FAIR      73  59  61 E7        30.16F
NEW ROADS*     FAIR      73  57  56 S12G18    30.14F
GONZALES*      FAIR      73  60  65 SE5       30.15S
HAMMOND*       CLOUDY    68  55  64 SE6       30.17F
HOUMA*         SUNNY     75  61  60 SE16      30.14F
PORT FOURCHON* SUNNY     72  66  83 E14       30.15F

$$

MSZ070-080>082-211800-
SOUTHERN MISSISSIPPI

CITY           SKY/WX    TMP DP  RH WIND       PRES   REMARKS
MCCOMB         FAIR      68  55  63 SE9       30.16F
GULFPORT       FAIR      70  56  61 SE6       30.19F
BILOXI         FAIR      71  56  60 SE6       30.19F
PASCAGOULA     FAIR      74  54  49 S10       30.20F
STENNIS ARPT*  SUNNY     70  57  64 SE7       30.18F

$$

COASTAL OBSERVATIONS
LAKE AND NEARSHORE STATIONS

STATION/POSITION TIME  SKY/WX   TEMP    WIND        PRES    WAVE
                                AIR SEA DIR/SP/G            HT/PER
                 (UTC)          (F)     (DEG/KT/KT) (MB)    (FT/S)
WAVELAND YACHT   1624            65 58  100/  4/  4 1022.8
GRAND ISLE       1630               66  110/  8/ 10   N/A
SOUTHWEST PASS   1630                   120/  9/ 10   N/A
NEW CANAL        1630            72 59  270/  2/  7 1020.9
SHELL BEACH      1630            70 61  110/ 15/ 16 1021.8

OFFSHORE STATIONS

STATION/POSITION TIME  SKY/WX   TEMP    WIND        PRES    WAVE
                                AIR SEA DIR/SP/G            HT/PER
                 (UTC)          (F)     (DEG/KT/KT) (MB)    (FT/S)
64 S DAUPHIN ISL 1650            72     150/  8/ 12 1022.5    2/ 4

$$





USA.gov is the U.S. government's official web portal to all federal, state and local government web resources and services.